Location: Krasnoyarskiy Pitomnik
(51.1333°N, 71.6167°E)
Time: 10:22:28
(UTC+00:00)

Okean 2 - Pass Details

Date: 22 October 2021
Orbit: 559 x 575 km, 82.5° (Epoch: 06 December)

Event Time Altitude Azimuth Distance (km) Brightness Sun altitude
Exits shadow 23:13:18 65° 59° (ENE) 624 3.7 -25.1°
Drops below altitude 10° 23:17:02 10° 14° (NNE) 1,871 6.3 -24.6°
Sets 23:19:14 0° 13° (NNE) 2,775 7.2 -24.2°
